DW2671 Weather Reports


time (UTC)temp
C
wind
direction
speed
KPH
gust
KPH
rain 1hr
cm
rain 24hr
cm
rain mn
cm
humidity
%
barometer
mb
20260507031105 15 306 1.6 12.9 0.00 0.23 0.23 98 1008.8
20260507030104 15 264 4.8 12.9 0.00 0.23 0.23 98 1008.8
20260507025104 15 188 3.2 12.9 0.00 0.23 0.23 98 1008.8
20260507024106 15 270 3.2 9.7 0.00 0.23 0.23 98 1008.4
20260507022105 15 208 3.2 11.3 0.00 0.23 0.23 98 1008.8
20260507021105 15 210 3.2 14.5 0.00 0.23 0.23 98 1008.8
20260507020105 14 195 3.2 9.7 0.00 0.23 0.23 98 1008.8
20260507015104 14 166 8.0 12.9 0.00 0.23 0.23 98 1008.4
20260507014104 14 203 3.2 3.2 0.00 0.23 0.23 98 1008.4
20260507013105 14 200 3.2 12.9 0.00 0.23 0.23 98 1008.8
20260507012104 14 151 1.6 9.7 0.00 0.23 0.23 97 1008.8
20260507010105 14 186 1.6 9.7 0.00 0.23 0.23 97 1009.1
20260507005105 14 247 4.8 4.8 0.00 0.23 0.23 97 1009.1
20260507004106 14 232 3.2 14.5 0.03 0.23 0.23 97 1009.1
20260506235104 14 117 3.2 9.7 0.08 0.23 0.23 97 1008.8
20260506234105 14 164 3.2 9.7 0.05 0.20 0.20 97 1008.8
20260506233104 14 156 3.2 9.7 0.03 0.15 0.15 98 1008.4
20260506232104 14 197 8.0 12.9 0.03 0.15 0.15 98 1008.8
20260506230105 15 189 6.4 14.5 0.00 0.13 0.13 98 1008.8
20260506225104 15 164 8.0 11.3 0.00 0.13 0.13 98 1008.8
20260506223106 15 141 3.2 3.2 0.03 0.13 0.13 98 1008.8
20260506222103 15 174 4.8 12.9 0.03 0.13 0.13 98 1009.1
20260506221105 15 128 3.2 9.7 0.03 0.13 0.13 98 1009.1
20260506220105 15 160 8.0 12.9 0.03 0.13 0.13 98 1009.1
20260506215104 15 166 4.8 14.5 0.05 0.13 0.13 98 1009.1
20260506214103 15 154 1.6 19.3 0.08 0.13 0.13 98 1009.1
20260506213105 15 154 4.8 14.5 0.05 0.10 0.10 97 1009.4
20260506212104 15 153 8.0 12.9 0.05 0.10 0.10 97 1009.8
20260506205105 15 180 6.4 12.9 0.05 0.08 0.08 95 1009.8
20260506204106 16 123 8.0 16.1 0.03 0.05 0.05 93 1010.1
20260506202105 16 196 8.0 25.7 0.05 0.05 0.05 91 1010.5
20260506201104 16 236 4.8 11.3 0.03 0.03 0.03 91 1010.5
20260506200105 16 180 3.2 14.5 0.03 0.03 0.03 90 1010.5
20260506195104 16 214 8.0 14.5 0.03 0.03 0.03 87 1010.1
20260506194103 16 192 4.8 19.3 0.03 0.03 0.03 85 1010.5
20260506193105 17 167 3.2 9.7 0.03 0.03 0.03 83 1010.8
20260506191105 17 189 3.2 9.7 0.00 0.00 0.00 77 1011.1
20260506190103 18 176 11.3 22.5 0.00 0.00 0.00 71 1011.1
20260506183105 20 198 9.7 19.3 0.00 0.00 0.00 62 1011.1
20260506182105 20 169 11.3 22.5 0.00 0.00 0.00 61 1011.5
20260506181105 20 176 6.4 14.5 0.00 0.00 0.00 61 1011.5
20260506180105 20 175 4.8 12.9 0.00 0.00 0.00 60 1011.8
20260506175105 21 150 4.8 22.5 0.00 0.00 0.00 58 1011.8
20260506174105 21 144 8.0 25.7 0.00 0.00 0.00 56 1012.2
20260506173105 21 188 12.9 35.4 0.00 0.00 0.00 54 1012.2
20260506172104 22 174 19.3 24.1 0.00 0.00 0.00 54 1012.2
20260506171105 22 354 9.7 14.5 0.00 0.00 0.00 55 1011.8
20260506170104 22 182 9.7 14.5 0.00 0.00 0.00 55 1012.2
20260506165104 22 38 4.8 12.9 0.00 0.00 0.00 57 1012.2
20260506164104 22 184 4.8 14.5 0.00 0.00 0.00 57 1012.5
20260506162105 22 193 3.2 12.9 0.00 0.00 0.00 55 1012.8
20260506161104 22 150 8.0 19.3 0.00 0.00 0.00 54 1012.8
20260506160104 22 198 4.8 19.3 0.00 0.00 0.00 54 1012.8
20260506155105 22 180 11.3 12.9 0.00 0.00 0.00 56 1013.2
20260506154104 22 211 11.3 12.9 0.00 0.00 0.00 57 1013.2
20260506153106 22 211 4.8 11.3 0.00 0.00 0.00 58 1013.2
20260506152105 22 146 4.8 9.7 0.00 0.00 0.00 58 1013.2
20260506150104 21 138 9.7 19.3 0.00 0.00 0.00 58 1013.5
20260506145105 21 188 8.0 24.1 0.00 0.00 0.00 57 1013.5
20260506144104 21 193 9.7 19.3 0.00 0.00 0.00 59 1013.2
20260506142104 21 105 8.0 12.9 0.00 0.00 0.00 61 1013.2
20260506140106 20 160 8.0 9.7 0.00 0.00 0.00 65 1012.8
20260506135105 19 189 4.8 11.3 0.00 0.00 0.00 68 1012.8
20260506134105 19 216 8.0 9.7 0.00 0.00 0.00 70 1012.8
20260506124104 17 176 4.8 9.7 0.00 0.00 0.00 77 1013.2
20260506123105 17 196 8.0 9.7 0.00 0.00 0.00 78 1013.2
20260506122105 17 111 3.2 14.5 0.00 0.00 0.00 81 1013.2
20260506120105 16 118 4.8 4.8 0.00 0.00 0.00 85 1013.2
20260506115105 15 164 6.4 12.9 0.00 0.00 0.00 86 1013.2
20260506114104 15 159 3.2 9.7 0.00 0.00 0.00 86 1013.2
20260506111104 15 121 3.2 12.9 0.00 0.00 0.00 88 1013.2
20260506110105 15 141 4.8 12.9 0.00 0.00 0.00 89 1013.2
20260506105104 15 186 4.8 9.7 0.00 0.00 0.00 88 1013.2
20260506102105 15 90 3.2 9.7 0.00 0.00 0.00 87 1013.2
20260506101105 15 219 3.2 16.1 0.00 0.00 0.00 87 1013.2
20260506095105 15 174 3.2 4.8 0.00 0.00 0.00 86 1012.8
20260506094105 15 169 1.6 3.2 0.00 0.00 0.00 86 1012.8
20260506093105 15 225 3.2 11.3 0.00 0.00 0.00 85 1012.8
20260506092105 15 176 3.2 3.2 0.00 0.00 0.00 85 1012.8
20260506091105 15 180 8.0 9.7 0.00 0.00 0.00 84 1012.8
20260506090105 15 140 4.8 4.8 0.00 0.00 0.00 84 1013.2
20260506085105 15 258 3.2 9.7 0.00 0.00 0.00 83 1013.2
20260506084105 15 154 3.2 14.5 0.00 0.00 0.00 82 1013.2
20260506083104 16 157 3.2 9.7 0.00 0.00 0.00 82 1013.2
20260506082104 16 227 6.4 19.3 0.00 0.00 0.00 81 1013.2
20260506080104 16 137 8.0 19.3 0.00 0.00 0.00 80 1013.2
20260506073105 16 147 4.8 12.9 0.00 0.00 0.00 79 1013.2
20260506072106 16 206 1.6 9.7 0.00 0.00 0.00 79 1013.2
20260506071104 16 202 3.2 12.9 0.00 0.00 0.00 78 1013.2
20260506070107 16 196 8.0 12.9 0.00 0.00 0.00 77 1013.2
20260506062105 16 200 11.3 19.3 0.00 0.00 0.00 75 1013.2
20260506061105 16 226 6.4 11.3 0.00 0.00 0.00 75 1013.2
20260506060104 17 151 8.0 19.3 0.00 0.00 0.00 74 1013.2
20260506051104 17 161 4.8 16.1 0.00 0.00 0.00 70 1013.9
20260506050105 17 175 6.4 11.3 0.00 0.00 0.00 69 1013.5
20260506045106 17 156 8.0 12.9 0.00 0.00 0.00 69 1013.9
20260506044106 17 189 6.4 14.5 0.00 0.00 0.00 68 1013.9
20260506043105 17 190 4.8 19.3 0.00 0.00 0.00 67 1013.9
20260506042105 17 208 8.0 12.9 0.00 0.00 0.00 66 1013.9
20260506041106 17 182 9.7 19.3 0.00 0.00 0.00 66 1013.9
20260506040106 17 168 4.8 24.1 0.00 0.00 0.00 65 1013.5
20260506035105 17 179 9.7 14.5 0.00 0.00 0.00 65 1013.5
20260506034104 17 237 9.7 24.1 0.00 0.00 0.00 64 1013.5
20260506033105 17 195 4.8 14.5 0.00 0.00 0.00 64 1013.5
20260506032104 17 203 9.7 24.1 0.00 0.00 0.00 63 1013.5